Simultaneous Nadir Overpasses (SNOs) Predictions

Prediction of SNOs between METOP-B and TERRA Satellite Orbit:

Table of predicted SNOs for the next 14.0 days since TLE Epoch: 5/15/2021
Index Date (METOP-B) Time (METOP-B) Lat,Lon (METOP-B) SZA (METOP-B ) Date (TERRA) Time (TERRA) Lat,Lon (TERRA) SZA (TERRA ) Distance(km) Time Diff (sec)
1 05/16/2021 18:47:32 81.26, -56.57 64.78 05/16/2021 18:48:06 81.25, -56.76 64.76 3.39 34
2 05/16/2021 19:38:12 -81.27, 111.06 115.20 05/16/2021 19:37:32 -81.27, 111.16 115.21 1.70 40
3 05/19/2021 14:21:56 81.26, 9.76 64.15 05/19/2021 14:22:17 81.25, 9.72 64.15 0.97 21
4 05/19/2021 15:12:35 -81.27, 177.83 115.76 05/19/2021 15:11:43 -81.27, 177.67 115.81 2.61 52
5 05/22/2021 09:56:21 81.26, 76.07 63.57 05/22/2021 09:56:29 81.25, 76.16 63.58 1.72 8
6 05/22/2021 10:47:00 -81.27,-115.81 116.34 05/22/2021 10:45:55 -81.27,-115.86 116.38 0.74 65
7 05/25/2021 04:40:06 -81.25, -25.16 116.99 05/25/2021 04:41:15 -81.25, -25.08 116.95 1.32 69
8 05/25/2021 05:30:45 81.26, 142.75 63.08 05/25/2021 05:30:40 81.27, 142.94 63.10 3.34 5
9 05/28/2021 00:14:30 -81.25, 41.17 117.48 05/28/2021 00:15:26 -81.25, 41.31 117.44 2.42 56



Historial Predications of SNOs between METOP-B and TERRA
